Mullan Pass, ID

1:30 PM PDT on October 16, 2019 (GMT -0700)
Mullan Pass

Weather History for KMLP - August, 2019

Change the Weather History Date:

Saturday, August 10, 2019

  Actual Average (K3TH) Record (K3TH)
Temperature  
Mean Temperature 57 °F -  
Max Temperature 70 °F 85 °F 100 °F (1996)
Min Temperature 48 °F 56 °F 50 °F (1997)
Degree Days  
Heating Degree Days 8    
Growing Degree Days 7 (Base 50)    
Moisture  
Dew Point 49 °F    
Average Humidity 88    
Maximum Humidity 97    
Minimum Humidity 51    
Precipitation  
Precipitation 0.09 in - - ()
Sea Level Pressure  
Sea Level Pressure 30.00 in    
Wind  
Wind Speed 5 mph (South)    
Max Wind Speed 10 mph    
Max Gust Speed 20 mph    
Visibility 4 miles    
Events Fog , Rain , Thunderstorm    
Averages and records for this station are not official NWS values.
T = Trace of Precipitation, MM = Missing Value Source: NWS Daily Summary

Daily Weather History Graph

Daily Weather History Graph

Search for Another Location

Airport or City:

Astronomy

Aug. 10, 2019 Rise Set
Actual Time 5:32 AM PDT 8:03 PM PDT
Civil Twilight 4:57 AM PDT 8:37 PM PDT
Nautical Twilight 4:14 AM PDT 9:20 PM PDT
Astronomical Twilight 3:23 AM PDT 10:10 PM PDT
Moon 4:58 PM PDT (8/10) 1:05 AM PDT (8/10)
Length of Visible Light 15h 39m
Length of Day
14h 31m
Waxing Gibbous, 80% of the Moon is Illuminated
Aug 10
Waxing Gibbous
Aug 15
Full
Aug 23
Last Quarter
Aug 30
New
Sep 5
First Quarter

Hourly Weather History & Observations

Time (PDT) Temp. Dew Point Humidity Pressure Visibility Wind Dir Wind Speed Gust Speed Precip Events Conditions
12:03 AM 52.0 °F 50.0 °F 93% 30.06 in 0.8 mi SSE 5.8 mph - N/A   Mist
12:27 AM 52.0 °F 50.0 °F 93% 30.07 in 0.2 mi South 4.6 mph - N/A Fog Fog
12:53 AM 52.0 °F 50.0 °F 93% 29.83 in 0.5 mi South 3.5 mph - N/A Fog Fog
12:56 AM 52.0 °F 50.0 °F 93% 30.06 in 2.5 mi South 4.6 mph - N/A   Mostly Cloudy
12:59 AM 52.0 °F 50.0 °F 93% 30.06 in 8.0 mi South 3.5 mph - N/A   Scattered Clouds
1:02 AM 52.0 °F 50.0 °F 93% 30.07 in 1.0 mi South 4.6 mph - N/A   Mist
1:04 AM 51.1 °F 50.0 °F 96% 30.07 in 0.2 mi South 5.8 mph - N/A Fog Fog
1:49 AM 51.8 °F 50.0 °F 94% 30.06 in 1.0 mi SSE 4.6 mph - N/A   Mist
1:51 AM 51.8 °F 50.0 °F 94% 30.06 in 2.5 mi SSE 5.8 mph - N/A   Mostly Cloudy
1:53 AM 52.0 °F 50.0 °F 93% 29.83 in 5.0 mi SSE 5.8 mph - N/A   Scattered Clouds
1:56 AM 52.0 °F 50.0 °F 93% 30.07 in 0.8 mi SSE 5.8 mph - N/A   Mist
2:04 AM 51.1 °F 50.0 °F 96% 30.07 in 0.2 mi SSE 5.8 mph - N/A Fog Fog
2:53 AM 52.0 °F 50.0 °F 93% 29.83 in 0.2 mi SSE 5.8 mph - N/A Fog Fog
3:39 AM 51.1 °F 50.0 °F 96% 30.07 in 1.0 mi South 6.9 mph - N/A   Mist
3:42 AM 51.1 °F 50.0 °F 96% 30.07 in 2.0 mi South 5.8 mph - N/A   Mostly Cloudy
3:45 AM 51.1 °F 50.0 °F 96% 30.07 in 1.0 mi South 5.8 mph - N/A   Mist
3:48 AM 51.8 °F 50.0 °F 94% 30.07 in 0.2 mi South 6.9 mph - N/A Fog Fog
3:53 AM 51.1 °F 50.0 °F 96% 29.83 in 0.2 mi South 6.9 mph - N/A Fog Fog
4:28 AM 51.1 °F 48.9 °F 92% 30.07 in 1.0 mi SW 4.6 mph - N/A   Mostly Cloudy
4:30 AM 51.1 °F 48.9 °F 92% 30.07 in 2.0 mi SSW 3.5 mph - N/A   Mostly Cloudy
4:33 AM 51.1 °F 48.9 °F 92% 30.07 in 6.0 mi South 3.5 mph - N/A   Mostly Cloudy
4:53 AM 51.1 °F 50.0 °F 96% 29.85 in 8.0 mi South 4.6 mph - N/A   Mostly Cloudy
5:53 AM 50.0 °F 48.9 °F 96% 29.86 in 4.0 mi South 5.8 mph - N/A   Partly Cloudy
5:55 AM 50.0 °F 48.9 °F 96% 30.09 in 0.8 mi South 4.6 mph - N/A   Mist
6:03 AM 50.0 °F 48.9 °F 96% 30.09 in 0.2 mi SSW 6.9 mph - N/A Fog Fog
6:12 AM 48.9 °F 46.9 °F 93% 30.09 in 1.0 mi SSW 6.9 mph - N/A   Mist
6:14 AM 50.0 °F 46.0 °F 86% 30.09 in 5.0 mi SSW 5.8 mph - N/A   Scattered Clouds
6:24 AM 50.0 °F 46.9 °F 89% 30.09 in 0.8 mi South 4.6 mph - N/A   Mist
6:32 AM 50.0 °F 48.9 °F 96% 30.10 in 0.2 mi SSW 4.6 mph - N/A Fog Fog
6:43 AM 50.0 °F 46.9 °F 89% 30.10 in 1.8 mi SSW 4.6 mph - N/A   Scattered Clouds
6:50 AM 50.0 °F 48.2 °F 94% 30.10 in 10.0 mi South 3.5 mph - N/A   Scattered Clouds
6:53 AM 50.0 °F 48.0 °F 93% 29.88 in 10.0 mi South 3.5 mph - N/A   Partly Cloudy
6:58 AM 50.0 °F 48.0 °F 93% 30.10 in 1.0 mi South 4.6 mph - N/A   Mist
7:00 AM 50.0 °F 48.9 °F 96% 30.10 in 0.2 mi South 3.5 mph - N/A Fog Fog
7:53 AM 52.0 °F 50.0 °F 93% 29.88 in 0.2 mi SE 6.9 mph - N/A Fog Fog
8:53 AM 53.1 °F 51.1 °F 93% 29.87 in 0.2 mi SE 5.8 mph - N/A Fog Fog
9:38 AM 54.0 °F 53.1 °F 97% 30.09 in 1.0 mi SE 5.8 mph - N/A   Mist
9:43 AM 54.0 °F 53.1 °F 97% 30.09 in 2.0 mi Variable 6.9 mph - N/A   Mostly Cloudy
9:50 AM 55.4 °F 53.6 °F 94% 30.09 in 1.2 mi SE 6.9 mph - N/A   Overcast
9:53 AM 54.0 °F 52.0 °F 93% 29.87 in 0.8 mi SSE 6.9 mph - N/A   Mist
10:06 AM 55.0 °F 53.1 °F 93% 30.10 in 1.5 mi SE 6.9 mph - N/A   Overcast
10:09 AM 55.0 °F 53.1 °F 93% 30.10 in 4.0 mi SE 6.9 mph - N/A   Mostly Cloudy
10:37 AM 55.9 °F 53.1 °F 90% 30.10 in 10.0 mi Variable 6.9 mph - N/A   Scattered Clouds
10:53 AM 60.1 °F 54.0 °F 80% 29.86 in 10.0 mi Variable 4.6 mph - N/A   Clear
11:53 AM 64.9 °F 54.0 °F 68% 29.83 in 10.0 mi Variable 4.6 mph - N/A   Clear
12:53 PM 66.0 °F 52.0 °F 60% 29.83 in 10.0 mi Calm Calm - N/A   Partly Cloudy
1:53 PM 66.0 °F 50.0 °F 56% 29.82 in 10.0 mi Calm Calm - N/A   Scattered Clouds
2:53 PM 66.9 °F 48.0 °F 51% 29.79 in 10.0 mi Variable 3.5 mph - N/A   Scattered Clouds
3:49 PM 64.4 °F 51.8 °F 64% 30.06 in 10.0 mi Variable 4.6 mph - N/A Thunderstorm Scattered Clouds
3:53 PM 63.0 °F 48.9 °F 60% 29.81 in 10.0 mi SE 4.6 mph - N/A Thunderstorm Mostly Cloudy
4:11 PM 61.0 °F 48.0 °F 62% 30.06 in 10.0 mi SE 6.9 mph - N/A   Overcast
4:42 PM 59.0 °F 48.0 °F 67% 30.05 in 10.0 mi SSE 6.9 mph - 0.00 in Rain , Thunderstorm Light Rain
4:53 PM 60.1 °F 48.9 °F 67% 29.82 in 10.0 mi SE 5.8 mph - 0.00 in   Overcast
5:41 PM 57.0 °F 48.0 °F 72% 30.06 in 10.0 mi Variable 6.9 mph - N/A Thunderstorm Overcast
5:53 PM 54.0 °F 48.0 °F 80% 29.86 in 10.0 mi SE 8.1 mph 19.6 mph 0.00 in Rain , Thunderstorm Light Rain
6:02 PM 52.0 °F 48.0 °F 86% 30.09 in 10.0 mi Variable 5.8 mph 19.6 mph 0.00 in Rain , Thunderstorm Light Thunderstorms and Rain
6:11 PM 51.1 °F 48.9 °F 92% 30.09 in 8.0 mi SE 10.4 mph 18.4 mph 0.01 in Rain , Thunderstorm Light Rain
6:33 PM 50.0 °F 48.0 °F 93% 30.11 in 4.0 mi Variable 6.9 mph - 0.05 in Rain Rain
6:41 PM 50.0 °F 48.0 °F 93% 30.08 in 3.0 mi East 8.1 mph - 0.08 in Rain Rain
6:53 PM 50.0 °F 46.0 °F 86% 29.81 in 7.0 mi East 8.1 mph - 0.09 in Rain Light Rain
7:40 PM 48.9 °F 46.9 °F 93% 30.05 in 1.8 mi WNW 3.5 mph - 0.00 in   Scattered Clouds
7:42 PM 48.9 °F 46.9 °F 93% 30.05 in 0.8 mi WNW 4.6 mph - 0.00 in   Mist
7:53 PM 48.9 °F 48.0 °F 97% 29.83 in 0.2 mi WNW 5.8 mph - 0.00 in Fog Fog
8:00 PM 48.9 °F 46.9 °F 93% 30.04 in 1.0 mi WNW 4.6 mph - N/A   Mist
8:13 PM 48.9 °F 46.0 °F 90% 30.04 in 10.0 mi West 4.6 mph - N/A   Scattered Clouds
8:53 PM 50.0 °F 45.0 °F 83% 29.86 in 10.0 mi South 4.6 mph - N/A   Clear
9:53 PM 48.9 °F 46.0 °F 90% 29.86 in 10.0 mi SSE 10.4 mph - N/A   Clear
10:29 PM 48.0 °F 46.0 °F 93% 30.07 in 10.0 mi SSE 9.2 mph - N/A   Partly Cloudy
10:53 PM 48.0 °F 46.0 °F 93% 29.85 in 10.0 mi Calm Calm - N/A   Clear
11:53 PM 52.0 °F 44.1 °F 74% 29.82 in 10.0 mi Calm Calm - N/A   Mostly Cloudy